Regional Weather Roundup
Issued by NWS

Home | Current Version | Previous Version | Graphics & Text | Print | Product List | Glossary On
Versions: 1 2 3 4 5 6 7 8 9 10 11 12 13 14 15 16 17 18 19 20 21 22 23 24 25 26 27 28 29 30 31 32 33 34 35 36 37 38 39 40 41 42 43 44 45 46 47 48 49 50
000
ASUS43 KMPX 091001
RWRMN
WEATHER ROUNDUP FOR MINNESOTA
NATIONAL WEATHER SERVICE TWIN CITIES/CHANHASSEN MN
400 AM CST FRI DEC 09 2016


NOTE: "FAIR" INDICATES FEW OR NO CLOUDS BELOW 12,000 FEET WITH NO
SIGNIFICANT WEATHER AND/OR OBSTRUCTIONS TO VISIBILITY. N/A MEANS
CURRENT SKY AND/OR WEATHER CONDITIONS ARE NOT AVAILABLE.

MNZ060>063-068>070-091100-
   Twin Cities Metro

CITY           SKY/WX    TMP DP  RH WIND       PRES   REMARKS
TWIN CITIES    CLOUDY    15   9  76 NW7       30.54S WCI   5
ST PAUL        CLOUDY    16  11  80 NW12      30.56S WCI   3
CRYSTAL        CLOUDY    15   8  73 W6        30.53F WCI   6
BLAINE         CLOUDY    16  10  79 NW7       30.53S WCI   6
LAKEVILLE      CLOUDY    10   9  92 W8        30.54S WCI  -1
EDEN PRAIRIE   CLOUDY    14   8  77 W7        30.54S WCI   4
SOUTH ST PAUL  CLOUDY    18  11  76 NW6       30.54S WCI   9
LAKE ELMO      FLURRIES  14  12  92 W6        30.54S WCI   5
$$
MNZ001>005-007-008-013>017-022>024-027-028-091100-
   Northwest Minnesota

CITY           SKY/WX    TMP DP  RH WIND       PRES   REMARKS
BEMIDJI        CLOUDY     4   0  80 NW6       30.49F WCI  -6
HALLOCK        CLOUDY     7   1  78 N6        30.56S WCI  -3
ROSEAU         CLOUDY     5   0  78 W5        30.53S WCI  -4
WARROAD        CLOUDY     3  -2  78 NW8       30.53S WCI -10
THIEF RVR FALL FLURRIES   6   2  83 NW5       30.55S WCI  -3
CROOKSTON      FLURRIES   9   5  85 NW9       30.57F WCI  -5
FOSSTON        CLOUDY     3   0  85 CALM      30.53S
DETROIT LAKES  CLOUDY     7   5  92 NW7       30.52F WCI  -5
MOORHEAD       MIX PCPN   7   1  78 W6        30.58F WCI  -3
PARK RAPIDS    CLOUDY     8   1  73 W8        30.49S WCI  -4
$$
MNZ006-009>011-018-025>026-091100-
   North Central Minnesota

CITY           SKY/WX    TMP DP  RH WIND       PRES   REMARKS
BAUDETTE       CLOUDY     4  -4  69 NW13      30.49F WCI -13
FLAG ISLAND    CLOUDY     3   0  85 W12       30.50S WCI -13
INTL FALLS     CLOUDY     9   4  80 W9        30.46S WCI  -4
WASKISH        CLOUDY     3   1  92 NW6       30.50F WCI  -8
BIG FORK       FLURRIES   7   3  85 CALM      30.47S
LONGVILLE      FLURRIES   9   5  85 NW5       30.49S WCI   0
GRAND RAPIDS   FLURRIES   8   5  87 NW8       30.48S WCI  -4
CRANE LAKE     CLOUDY     9   5  85 CALM      30.46S
ORR            FLURRIES   9   3  78 CALM      30.42S
COOK           CLOUDY     9   5  85 W7        30.45S WCI  -3
$$
MNZ012-019>021-037-091100-
   Northeast Minnesota

CITY           SKY/WX    TMP DP  RH WIND       PRES   REMARKS
DULUTH         FLURRIES  12   6  77 NW8       30.43R WCI   0
ELY            FLURRIES  10   7  85 NW5       30.40S WCI   2
HIBBING        FLURRIES  10   5  80 NW8       30.45R WCI  -2
EVELETH        FLURRIES  12   6  76 NW10      30.45R WCI  -1
DULUTH HARBOR  CLOUDY    18   9  68 NW12      30.51S WCI   5
TWO HARBORS    CLOUDY    18   9  68 CALM      30.43S
SILVER BAY     CLEAR      9   5  85 CALM      30.42S
GRAND MARAIS     N/A     17   8  67 CALM      30.44R
G MARAIS ARPRT CLOUDY     9   1  72 NW3       30.33R HAZE
$$
MNZ029>031-032-039>041-046>048-054>057-064-091100-
   West Central Minnesota

CITY           SKY/WX    TMP DP  RH WIND       PRES   REMARKS
FERGUS FALLS   CLOUDY     3   0  85 NW6       30.61F WCI  -8
WHEATON        CLOUDY     3  -2  78 W7        30.61F WCI  -9
MORRIS         CLOUDY     3  -2  78 W9        30.56F WCI -11
ALEXANDRIA     CLOUDY     4   1  88 W12       30.53S WCI -12
ELBOW LAKE     FLURRIES   3   0  85 NW8       30.56F WCI -10
WADENA         FLURRIES   7   3  85 W6        30.50F WCI  -3
GLENWOOD       PTCLDY     0  -4  85 W7        30.54F WCI -13
APPLETON       CLEAR      1  -4  78 NW7       30.60S WCI -11
BENSON         FLURRIES   1  -4  78 CALM      30.57F
ORTONVILLE     PTCLDY     0  -6  78 CALM      30.58F
MADISON        CLEAR      3   0  85 NW6       30.59F WCI  -8
WILLMAR        FAIR       3   0  85 W7        30.57F WCI  -9
$$
MNZ033>034-036-042>043-049>051-058-059-091100-
   Central Minnesota

CITY           SKY/WX    TMP DP  RH WIND       PRES   REMARKS
ST CLOUD       CLOUDY    11   8  88 W7        30.53S WCI   0
PAYNESVILLE    CLEAR      3   0  86 W8        30.56S WCI -11
AITKIN         MIX PCPN  12   7  79 CALM      30.47S
PINE RIVER     FLURRIES   9   5  85 W3        30.52S
BRAINERD       CLOUDY    11   6  81 NW7       30.50S WCI   0
STAPLES        FLURRIES   9   5  85 NW5       30.51S WCI   0
LONG PRAIRIE   FAIR       3   0  85 SW3       30.53S
LITTLE FALLS   PTCLDY    10   5  79 W5        30.53S WCI   2
LITCHFIELD     MOCLDY     9   5  85 W7        30.55F WCI  -3
BUFFALO        CLOUDY    13   9  82 W7        30.55F WCI   3
MAPLE LAKE     CLOUDY    14  11  87 W6        30.54F WCI   5
HUTCHINSON     CLOUDY    10   6  85 W10       30.56S WCI  -4
$$
MNZ037-044-045-052-053-091100-
   East Central Minnesota

CITY           SKY/WX    TMP DP  RH WIND       PRES   REMARKS
PRINCETON      CLOUDY    16  10  79 W5        30.52S WCI   9
MORA           CLOUDY    12   9  85 W3        30.52S
CAMBRIDGE      CLOUDY    14   7  73 W5        30.51S WCI   6
RUSH CITY      CLOUDY    12  10  92 W6        30.52S WCI   3
MOOSE LAKE     LGT SNOW  16  12  86 NW6       30.46S WCI   7
HINCKLEY       CLOUDY    14  12  92 W6        30.50R WCI   5
CLOQUET        LGT SNOW  12   9  85 W3        30.44F
MCGREGOR       PTCLDY    14  10  85 NW7       30.48S WCI   4
$$
MNZ071>073-080-081-089-090-097-098-091100-
   Southwest Minnesota

CITY           SKY/WX    TMP DP  RH WIND       PRES   REMARKS
MONTEVIDEO     CLEAR      1  -2  85 N5        30.61S WCI  -8
GRANITE FALLS  CLEAR      3  -1  83 W7        30.61F WCI -10
CANBY          CLEAR      1  -3  82 CALM      30.60S
MARSHALL       CLEAR      1  -4  79 NW3       30.58F
REDWOOD FALLS  CLEAR      3  -2  79 NW8       30.59S WCI -10
OLIVIA         CLEAR      3   0  85 NW7       30.58S WCI  -9
PIPESTONE      CLEAR      1  -2  85 NW5       30.53F WCI  -8
WINDOM         CLEAR      3   0  85 CALM      30.55F
WORTHINGTON    CLEAR      1  -2  87 W8        30.55F WCI -13
JACKSON        CLEAR      3   1  92 NW3       30.55F
TRACY          CLEAR      4   0  83 NW5       30.57S WCI  -5
SLAYTON        CLEAR      1  -2  88 NW3       30.54F
$$
MNZ065>067-074>077-082>085-091>093-091100-
   South Central Minnesota

CITY           SKY/WX    TMP DP  RH WIND       PRES   REMARKS
MANKATO        FLURRIES   8   5  87 W10       30.57S WCI  -6
NEW ULM        CLEAR      5   0  78 W8        30.58S WCI  -8
ST JAMES       PTCLDY     7   1  78 W9        30.59S WCI  -7
FAIRMONT       FLURRIES   8   4  83 NW13      30.58R WCI  -8
GLENCOE        CLOUDY    11   9  89 W8        30.55S WCI  -1
FARIBAULT      CLOUDY    10   9  92 W8        30.55R WCI  -1
OWATONNA       FLURRIES  10   7  85 W10       30.54R WCI  -3
WASECA         FLURRIES  12   9  85 W10G17    30.56S WCI  -1
ALBERT LEA     FLURRIES  16  12  86 W5        30.53S WCI   9
$$
MNZ078>079-086>088-094>096-091100-
   Southeast Minnesota

CITY           SKY/WX    TMP DP  RH WIND       PRES   REMARKS
ROCHESTER      CLOUDY    11   9  92 NW9       30.50S WCI  -2
RED WING       CLEAR     16  10  79 W3        30.52S
STANTON        PTCLDY    12   8  85 W8        30.53S WCI   1
DODGE CENTER   FLURRIES  10   9  92 W9        30.50S WCI  -2
WINONA         CLOUDY    21  16  79 W7        30.53S WCI  13
AUSTIN         LGT SNOW  12   9  85 NW10      30.52S WCI  -1
PRESTON        FLURRIES  10   7  87 NW8       30.50S WCI  -2
$$
ABBREVIATIONS USED IN REMARKS
   TC - TEMPERATURES IN CELSIUS
  WCI - WIND CHILL INDEX
   HX - HEAT INDEX
  VSB - VISIBILITY
$$




USA.gov is the U.S. government's official web portal to all federal, state and local government web resources and services.